TimeEDT,TemperatureF,Dew PointF,Humidity,Sea Level PressureIn,VisibilityMPH,Wind Direction,Wind SpeedMPH,Gust SpeedMPH,PrecipitationIn,Events,Conditions,WindDirDegrees,DateUTC
12:54 AM,7.0,1.9,80,30.28,10.0,Calm,Calm,-,N/A,,Clear,0,2013-03-18 04:54:00
1:54 AM,7.0,1.0,77,30.26,10.0,Calm,Calm,-,N/A,,Clear,0,2013-03-18 05:54:00
2:54 AM,7.0,1.0,77,30.25,10.0,Calm,Calm,-,N/A,,Clear,0,2013-03-18 06:54:00
3:54 AM,5.0,-0.0,80,30.22,10.0,North,3.5,-,N/A,,Clear,360,2013-03-18 07:54:00
4:54 AM,5.0,-0.0,80,30.20,10.0,Calm,Calm,-,N/A,,Clear,0,2013-03-18 08:54:00
5:54 AM,5.0,-0.0,80,30.18,10.0,Calm,Calm,-,N/A,,Partly Cloudy,0,2013-03-18 09:54:00
6:28 AM,8.6,5.0,85,30.13,10.0,Calm,Calm,-,N/A,,Mostly Cloudy,0,2013-03-18 10:28:00
6:54 AM,19.9,15.1,81,30.16,10.0,SE,9.2,-,N/A,,Scattered Clouds,130,2013-03-18 10:54:00
7:03 AM,24.8,17.6,74,30.11,10.0,ESE,11.5,-,N/A,,Mostly Cloudy,120,2013-03-18 11:03:00
7:54 AM,25.0,19.0,78,30.13,10.0,SE,13.8,23.0,N/A,,Mostly Cloudy,130,2013-03-18 11:54:00
8:00 AM,24.8,19.4,80,30.09,10.0,SE,15.0,21.9,N/A,,Mostly Cloudy,130,2013-03-18 12:00:00
8:18 AM,26.6,17.6,69,30.09,10.0,ESE,12.7,-,N/A,,Mostly Cloudy,120,2013-03-18 12:18:00
8:54 AM,27.0,18.0,69,30.09,10.0,ESE,15.0,24.2,N/A,,Mostly Cloudy,120,2013-03-18 12:54:00
9:54 AM,27.0,17.1,66,30.06,10.0,ESE,18.4,29.9,N/A,,Mostly Cloudy,120,2013-03-18 13:54:00
10:54 AM,28.0,19.9,72,30.03,10.0,ESE,19.6,29.9,N/A,,Mostly Cloudy,110,2013-03-18 14:54:00
11:54 AM,30.0,21.0,69,29.98,10.0,ESE,23.0,28.8,N/A,,Mostly Cloudy,120,2013-03-18 15:54:00
12:54 PM,30.9,21.0,67,29.93,10.0,ESE,17.3,33.4,N/A,,Mostly Cloudy,110,2013-03-18 16:54:00
1:54 PM,30.9,19.9,64,29.88,10.0,East,18.4,29.9,N/A,,Overcast,100,2013-03-18 17:54:00
2:54 PM,30.9,19.0,61,29.83,10.0,ESE,23.0,33.4,N/A,,Overcast,120,2013-03-18 18:54:00
3:54 PM,30.9,21.0,67,29.77,10.0,ESE,20.7,27.6,N/A,,Overcast,110,2013-03-18 19:54:00
4:11 PM,30.2,21.2,69,29.72,8.0,ESE,19.6,27.6,N/A,,Overcast,110,2013-03-18 20:11:00
4:19 PM,30.2,21.2,69,29.72,10.0,ESE,17.3,27.6,N/A,,Overcast,110,2013-03-18 20:19:00
4:36 PM,30.2,24.8,80,29.72,2.5,ESE,17.3,29.9,0.00,Snow,Light Snow,110,2013-03-18 20:36:00
4:50 PM,30.2,24.8,80,29.71,1.2,ESE,15.0,27.6,0.00,Snow,Light Snow,110,2013-03-18 20:50:00
4:54 PM,30.0,25.0,82,29.74,1.2,ESE,19.6,27.6,0.00,Snow,Light Snow,110,2013-03-18 20:54:00
5:12 PM,30.2,26.6,86,29.69,0.8,ESE,17.3,27.6,0.00,Snow,Light Snow,120,2013-03-18 21:12:00
5:18 PM,30.2,26.6,86,29.68,1.0,ESE,17.3,28.8,0.01,Snow,Light Snow,110,2013-03-18 21:18:00
5:25 PM,30.2,26.6,86,29.68,1.0,ESE,19.6,33.4,0.01,Snow,Light Snow,110,2013-03-18 21:25:00
5:29 PM,30.2,26.6,86,29.68,0.8,ESE,17.3,33.4,0.01,Snow,Light Snow,110,2013-03-18 21:29:00
5:43 PM,30.2,26.6,86,29.68,0.2,ESE,15.0,28.8,0.02,Fog-Snow,Snow,120,2013-03-18 21:43:00
5:50 PM,30.2,28.4,93,29.67,0.2,ESE,13.8,21.9,0.02,Fog-Snow,Light Snow,120,2013-03-18 21:50:00
5:54 PM,30.0,28.0,92,29.71,0.5,ESE,17.3,23.0,0.02,Fog-Snow,Light Snow,120,2013-03-18 21:54:00
6:54 PM,30.0,27.0,88,29.67,0.8,ESE,17.3,26.5,0.04,Snow,Light Snow,120,2013-03-18 22:54:00
7:25 PM,30.2,26.6,86,29.63,1.0,SE,13.8,27.6,0.01,Snow,Light Snow,130,2013-03-18 23:25:00
7:46 PM,30.2,26.6,86,29.61,0.8,ESE,16.1,24.2,0.01,Snow,Light Snow,120,2013-03-18 23:46:00
7:54 PM,30.0,27.0,88,29.64,1.0,ESE,16.1,23.0,0.02,Snow,Light Snow,120,2013-03-18 23:54:00
8:54 PM,28.9,27.0,92,29.62,1.0,SE,16.1,23.0,0.02,Snow,Light Snow,130,2013-03-19 00:54:00
9:02 PM,28.4,26.6,93,29.59,0.8,ESE,17.3,24.2,0.01,Snow,Light Snow,120,2013-03-19 01:02:00
9:54 PM,28.9,27.0,92,29.59,1.0,ESE,11.5,-,0.07,Snow,Light Snow,120,2013-03-19 01:54:00
10:31 PM,30.2,28.4,93,29.54,0.5,ESE,10.4,-,0.02,Fog-Snow,Snow,120,2013-03-19 02:31:00
10:54 PM,30.0,28.0,92,29.56,0.8,SE,10.4,20.7,0.06,Snow,Light Snow,130,2013-03-19 02:54:00
11:01 PM,30.2,28.4,93,29.53,1.0,SE,10.4,-,0.00,Snow,Light Snow,130,2013-03-19 03:01:00
11:08 PM,30.2,28.4,93,29.53,1.2,SE,11.5,-,0.00,Snow,Light Snow,130,2013-03-19 03:08:00
11:54 PM,30.0,28.0,92,29.52,2.0,SE,10.4,-,0.02,Snow,Light Snow,130,2013-03-19 03:54:00